Weather History for Lambertville, MI

Change the Weather History Date:

Sunday, August 25, 2013

  Actual Average (KTOL) Record (KTOL)
Temperature  
Mean Temperature 70 °F 71 °F  
Max Temperature 86 °F 82 °F 95 °F (1993)
Min Temperature 53 °F 60 °F 46 °F (1977)
Degree Days  
Heating Degree Days 0 1  
Month to date heating degree days 1  
Since 1 June heating degree days 39  
Since 1 July heating degree days 4  
Cooling Degree Days 4 6  
Month to date cooling degree days 181  
Year to date cooling degree days 669  
Since 1 June cooling degree days 616  
Growing Degree Days 20 (Base 50)    
Moisture  
Dew Point 57 °F    
Average Humidity 65    
Maximum Humidity 94    
Minimum Humidity 37    
Precipitation  
Precipitation 0.00 in 0.10 in 1.36 in (1998)
Month to date precipitation 2.56  
Year to date precipitation 22.73  
Snow  
Snow 0.00 in 0.00 in - ()
Month to date snowfall 0.0  
Since 1 June snowfall 0.0  
Since 1 July snowfall 0.0  
Snow Depth -    
Sea Level Pressure  
Sea Level Pressure 30.27 in    
Wind  
Wind Speed 3 mph (SW)    
Max Wind Speed 12 mph    
Max Gust Speed 17 mph    
Visibility 10 miles    
Events      
T = Trace of Precipitation, MM = Missing Value Source: NWS Daily Summary

Daily Weather History Graph

Daily Weather History Graph

Search for Another Location

Airport:

Trip Planner

Search our weather history database for the weather conditions in past years. The results will help you decide how hot, cold, wet, or windy it might be!

Date:

Astronomy

Aug. 25, 2013 Rise Set
Actual Time 6:53 AM EDT 8:18 PM EDT
Civil Twilight 6:24 AM EDT 8:47 PM EDT
Nautical Twilight 5:49 AM EDT 9:22 PM EDT
Astronomical Twilight 5:12 AM EDT 9:59 PM EDT
Moon 10:44 PM EDT (8/25) 11:59 AM EDT (8/25)
Length of Visible Light 14h 23m
Length of Day
13h 25m
Waning Gibbous, 76% of the Moon is Illuminated
Aug 25
Waning Gibbous
Aug 28
Last Quarter
Sep 5
New
Sep 12
First Quarter
Sep 19
Full

Hourly Weather History & Observations

Time (EDT) Temp. Heat Index Dew Point Humidity Pressure Visibility Wind Dir Wind Speed Gust Speed Precip Events Conditions
12:15 AM 60.8 °F - 55.4 °F 82% 30.30 in 10.0 mi Calm Calm - N/A   Clear
12:35 AM 59.0 °F - 55.4 °F 88% 30.29 in 10.0 mi Calm Calm - N/A   Clear
12:55 AM 59.0 °F - 55.4 °F 88% 30.30 in 10.0 mi Calm Calm - N/A   Clear
1:15 AM 59.0 °F - 55.4 °F 88% 30.30 in 10.0 mi Calm Calm - N/A   Clear
1:35 AM 59.0 °F - 55.4 °F 88% 30.29 in 10.0 mi Calm Calm - N/A   Clear
1:55 AM 59.0 °F - 55.4 °F 88% 30.29 in 10.0 mi Calm Calm - N/A   Clear
2:15 AM 57.2 °F - 55.4 °F 94% 30.29 in 10.0 mi Calm Calm - N/A   Clear
2:35 AM 59.0 °F - 55.4 °F 88% 30.28 in 10.0 mi Calm Calm - N/A   Clear
2:55 AM 57.2 °F - 53.6 °F 88% 30.29 in 10.0 mi Calm Calm - N/A   Clear
3:15 AM 55.4 °F - 53.6 °F 94% 30.30 in 10.0 mi Calm Calm - N/A   Clear
3:35 AM 55.4 °F - 53.6 °F 94% 30.30 in 10.0 mi Calm Calm - N/A   Clear
3:55 AM 55.4 °F - 53.6 °F 94% 30.30 in 10.0 mi Calm Calm - N/A   Clear
4:15 AM 55.4 °F - 53.6 °F 94% 30.30 in 5.0 mi Calm Calm - N/A   Clear
4:35 AM 55.4 °F - 53.6 °F 94% 30.30 in 10.0 mi Calm Calm - N/A   Clear
4:55 AM 55.4 °F - 53.6 °F 94% 30.31 in 7.0 mi Calm Calm - N/A   Clear
5:15 AM 55.4 °F - 53.6 °F 94% 30.31 in 7.0 mi Calm Calm - N/A   Clear
5:35 AM 55.4 °F - 53.6 °F 94% 30.31 in 7.0 mi Calm Calm - N/A   Clear
5:55 AM 53.6 °F - 51.8 °F 94% 30.31 in 10.0 mi Calm Calm - N/A   Clear
6:15 AM 55.4 °F - 53.6 °F 94% 30.31 in 5.0 mi Calm Calm - N/A   Clear
6:35 AM 53.6 °F - 51.8 °F 94% 30.31 in 7.0 mi Calm Calm - N/A   Clear
6:55 AM 53.6 °F - 51.8 °F 94% 30.32 in 10.0 mi Calm Calm - N/A   Clear
7:15 AM 53.6 °F - 51.8 °F 94% 30.32 in 5.0 mi Calm Calm - N/A   Clear
7:35 AM 55.4 °F - 53.6 °F 94% 30.31 in 10.0 mi Calm Calm - N/A   Clear
7:55 AM 57.2 °F - 55.4 °F 94% 30.31 in 10.0 mi Calm Calm - N/A   Clear
8:15 AM 60.8 °F - 57.2 °F 88% 30.31 in 10.0 mi SSE 3.5 mph - N/A   Clear
8:35 AM 64.4 °F - 57.2 °F 77% 30.32 in 10.0 mi South 3.5 mph - N/A   Clear
8:55 AM 66.2 °F - 57.2 °F 73% 30.31 in 10.0 mi South 5.8 mph - N/A   Clear
9:15 AM 68.0 °F - 57.2 °F 68% 30.31 in 10.0 mi SSW 5.8 mph - N/A   Clear
9:35 AM 69.8 °F - 59.0 °F 68% 30.31 in 10.0 mi SSW 6.9 mph - N/A   Clear
9:55 AM 71.6 °F - 59.0 °F 64% 30.31 in 10.0 mi SW 4.6 mph - N/A   Clear
10:15 AM 73.4 °F - 59.0 °F 61% 30.31 in 10.0 mi WSW 3.5 mph - N/A   Clear
10:35 AM 77.0 °F - 59.0 °F 54% 30.31 in 10.0 mi SW 4.6 mph - N/A   Clear
10:55 AM 77.0 °F - 59.0 °F 54% 30.32 in 10.0 mi WSW 9.2 mph - N/A   Clear
11:15 AM 78.8 °F - 60.8 °F 54% 30.31 in 10.0 mi WSW 6.9 mph - N/A   Clear
11:35 AM 78.8 °F - 60.8 °F 54% 30.31 in 10.0 mi West 6.9 mph - N/A   Clear
11:55 AM 80.6 °F 81.1 °F 59.0 °F 48% 30.31 in 10.0 mi SW 5.8 mph - N/A   Clear
12:15 PM 80.6 °F 81.1 °F 59.0 °F 48% 30.30 in 10.0 mi SW 6.9 mph - N/A   Clear
12:35 PM 82.4 °F 82.9 °F 60.8 °F 48% 30.29 in 10.0 mi SW 10.4 mph - N/A   Clear
12:55 PM 82.4 °F 82.5 °F 59.0 °F 45% 30.29 in 10.0 mi SW 9.2 mph - N/A   Clear
1:15 PM 82.4 °F 82.5 °F 59.0 °F 45% 30.28 in 10.0 mi SSW 5.8 mph - N/A   Clear
1:35 PM 84.2 °F 83.8 °F 59.0 °F 42% 30.27 in 10.0 mi WSW 6.9 mph - N/A   Clear
1:55 PM 84.2 °F 83.8 °F 59.0 °F 42% 30.28 in 10.0 mi SSW 11.5 mph 17.3 mph N/A   Clear
2:15 PM 84.2 °F 83.8 °F 59.0 °F 42% 30.27 in 10.0 mi West 6.9 mph - N/A   Clear
2:35 PM 86.0 °F 85.4 °F 59.0 °F 40% 30.26 in 10.0 mi WSW 9.2 mph - N/A   Clear
2:55 PM 86.0 °F 85.4 °F 59.0 °F 40% 30.25 in 10.0 mi SW 8.1 mph - N/A   Clear
3:15 PM 86.0 °F 85.4 °F 59.0 °F 40% 30.25 in 10.0 mi WSW 6.9 mph - N/A   Clear
3:35 PM 86.0 °F 84.9 °F 57.2 °F 37% 30.23 in 10.0 mi SSW 9.2 mph - N/A   Clear
3:55 PM 86.0 °F 85.4 °F 59.0 °F 40% 30.23 in 10.0 mi SSW 5.8 mph - N/A   Clear
4:15 PM 86.0 °F 85.4 °F 59.0 °F 40% 30.22 in 10.0 mi SSW 4.6 mph - N/A   Clear
4:35 PM 86.0 °F 85.4 °F 59.0 °F 40% 30.22 in 10.0 mi SW 4.6 mph - N/A   Clear
4:55 PM 86.0 °F 85.4 °F 59.0 °F 40% 30.22 in 10.0 mi WSW 9.2 mph - N/A   Clear
5:15 PM 86.0 °F 85.4 °F 59.0 °F 40% 30.21 in 10.0 mi SSW 8.1 mph - N/A   Clear
5:35 PM 86.0 °F 85.4 °F 59.0 °F 40% 30.20 in 10.0 mi SW 8.1 mph - N/A   Clear
5:55 PM 84.2 °F 83.8 °F 59.0 °F 42% 30.20 in 10.0 mi SSW 9.2 mph - N/A   Clear
6:15 PM 84.2 °F 83.8 °F 59.0 °F 42% 30.20 in 10.0 mi SSW 9.2 mph - N/A   Clear
6:35 PM 82.4 °F 82.5 °F 59.0 °F 45% 30.20 in 10.0 mi SSW 5.8 mph - N/A   Clear
6:55 PM 82.4 °F 82.5 °F 59.0 °F 45% 30.19 in 10.0 mi SSW 6.9 mph - N/A   Clear
7:15 PM 82.4 °F 82.5 °F 59.0 °F 45% 30.20 in 10.0 mi SSW 5.8 mph - N/A   Clear
7:35 PM 80.6 °F 81.1 °F 59.0 °F 48% 30.20 in 10.0 mi SSW 5.8 mph - N/A   Clear
7:55 PM 80.6 °F 81.1 °F 59.0 °F 48% 30.19 in 10.0 mi SSW 4.6 mph - N/A   Clear
8:15 PM 78.8 °F - 59.0 °F 51% 30.19 in 10.0 mi SSW 5.8 mph - N/A   Clear
8:35 PM 78.8 °F - 59.0 °F 51% 30.19 in 10.0 mi SSW 4.6 mph - N/A   Clear
8:55 PM 77.0 °F - 59.0 °F 54% 30.20 in 10.0 mi SSW 6.9 mph - N/A   Clear
9:15 PM 77.0 °F - 59.0 °F 54% 30.20 in 10.0 mi SW 4.6 mph - N/A   Clear
9:35 PM 77.0 °F - 59.0 °F 54% 30.21 in 10.0 mi SW 5.8 mph - N/A   Clear
9:55 PM 77.0 °F - 59.0 °F 54% 30.22 in 10.0 mi SW 4.6 mph - N/A   Clear
10:15 PM 77.0 °F - 59.0 °F 54% 30.22 in 10.0 mi SW 5.8 mph - N/A   Clear
10:35 PM 75.2 °F - 60.8 °F 61% 30.22 in 10.0 mi SW 5.8 mph - N/A   Clear
10:55 PM 75.2 °F - 59.0 °F 57% 30.22 in 10.0 mi SW 5.8 mph - N/A   Clear
11:15 PM 75.2 °F - 59.0 °F 57% 30.22 in 10.0 mi SW 6.9 mph - N/A   Clear
11:35 PM 75.2 °F - 59.0 °F 57% 30.22 in 10.0 mi WSW 8.1 mph - N/A   Clear
11:55 PM 75.2 °F - 59.0 °F 57% 30.21 in 10.0 mi WSW 8.1 mph - N/A   Clear